Flag for Russia Weather past 2 weeks in Samara, Russia

Now
82 °F

Sunny.


Feels Like: 81 °F
Forecast: 67 / 90 °F
Wind: 17 mph from West

Location: Samara

Current Time: Jul 31, 2015 at 5:53:18 PM

Latest Report: Jul 31, 2015 at 5:30 PM


Visibility: 10 mi

Pressure: 29.83 "Hg

Humidity: 35%

Dew point: 52 °F

Location of SamaraLocation

Historic Weather in Samara — Graph

°F

Samara temperature yesterday

Maximum temperature yesterday: 82 °F (at 4:30 PM)
Minimum temperature yesterday: 68 °F (at 1:00 AM)
Average temperature yesterday: 75 °F

Past Weeks' High & Low Weather Summary

 TemperatureHumidityPressure
High86 °F (Jul 29, 4:30 PM)88% (Jul 21, 7:30 PM)29.98 "Hg (Jul 21, 7:30 PM)
Low52 °F (Jul 20, 12:30 AM)19% (Jul 29, 4:30 PM)29.50 "Hg (Jul 21, 2:00 PM)
Average68 °F52%29.81 "Hg
* Reported Jul 16 4:00 PM — Jul 31 4:30 PM, Samara, Weather by CustomWeather, © 2015

Note: Actual official high and low records may vary slightly from our data, if they occured in-between our weather recording intervals... More about our weather records

Advertising

Samara weather history for previous 24 hours

 ConditionsComfort  
Time TempWeatherWind HumidityBarometerVisibility
4:30 PM
Fri, Jul 31
82 °FBroken clouds.15 mph32%29.86 "HgN/A
4:00 PM84 °FBroken clouds.20 mph31%29.86 "HgN/A
3:30 PM84 °FMore clouds than sun.15 mph33%29.86 "HgN/A
3:00 PM82 °FMore clouds than sun.13 mph35%29.86 "HgN/A
2:30 PM81 °FMore clouds than sun.10 mph37%29.86 "HgN/A
2:00 PM79 °FMore clouds than sun.10 mph39%29.86 "HgN/A
1:30 PM79 °FMore clouds than sun.10 mph39%29.86 "HgN/A
1:00 PM79 °FMore clouds than sun.10 mph39%29.89 "HgN/A
12:30 PM81 °FMore clouds than sun.13 mph37%29.86 "HgN/A
12:00 PM81 °FMore clouds than sun.10 mph39%29.89 "HgN/A
11:30 AM81 °FMore clouds than sun.13 mph34%29.86 "HgN/A
11:00 AM81 °FMore clouds than sun.10 mph37%29.86 "HgN/A
10:30 AM79 °FMostly cloudy.13 mph39%29.86 "HgN/A
10:00 AM79 °FMostly cloudy.8 mph39%29.86 "HgN/A
9:30 AM79 °FMostly cloudy.10 mph39%29.86 "HgN/A
9:00 AM79 °FMostly cloudy.8 mph39%29.86 "HgN/A
8:30 AM77 °FPassing clouds.6 mph44%29.86 "HgN/A
8:00 AM77 °FSunny.6 mph42%29.86 "Hg10 mi
7:30 AM73 °FPassing clouds.3 mph50%29.86 "HgN/A
7:00 AM73 °FSunny.1 mph50%29.86 "Hg10 mi
6:30 AM70 °FSunny.6 mph60%29.86 "Hg10 mi
6:00 AM64 °FSunny.6 mph68%29.86 "Hg10 mi
5:30 AM66 °FClear.6 mph60%29.86 "Hg10 mi
5:00 AM64 °FClear.3 mph64%29.86 "Hg10 mi
4:30 AM66 °FClear.6 mph60%29.86 "Hg10 mi
4:00 AM66 °FClear.6 mph60%29.86 "Hg10 mi
3:30 AM66 °FClear.6 mph60%29.86 "Hg10 mi
3:00 AM68 °FMostly cloudy.6 mph56%29.86 "HgN/A
2:30 AM66 °FMostly cloudy.3 mph60%29.86 "HgN/A
2:00 AM66 °FMostly cloudy.3 mph60%29.86 "HgN/A
1:30 AM61 °FClear.6 mph72%29.86 "Hg10 mi
1:00 AM68 °FClear.6 mph56%29.86 "Hg10 mi
12:30 AM70 °FClear.6 mph53%29.86 "Hg10 mi
12:00 AM66 °FClear.6 mph60%29.86 "Hg10 mi
11:30 PM
Thu, Jul 30
68 °FClear.6 mph53%29.86 "Hg10 mi
11:00 PM72 °FClear.6 mph47%29.86 "Hg10 mi
10:30 PM72 °FClear.3 mph47%29.86 "Hg10 mi
10:00 PM72 °FClear.3 mph44%29.86 "Hg10 mi
9:30 PM73 °FSunny.No wind41%29.83 "Hg10 mi
9:00 PM77 °FPassing clouds.3 mph36%29.86 "HgN/A
8:30 PM77 °FSunny.3 mph36%29.86 "Hg10 mi
8:00 PM79 °FSunny.6 mph34%29.83 "Hg10 mi
7:30 PM81 °FPassing clouds.6 mph32%29.83 "HgN/A
7:00 PM81 °FScattered clouds.6 mph30%29.83 "HgN/A
6:30 PM81 °FScattered clouds.6 mph32%29.80 "HgN/A
6:00 PM81 °FScattered clouds.8 mph30%29.83 "HgN/A
5:30 PM82 °FScattered clouds.10 mph30%29.83 "HgN/A
5:00 PM81 °FScattered clouds.10 mph30%29.83 "HgN/A
Weather by CustomWeather, © 2015

See weather overviewHow to use our weather pages